| time (UTC) | temp F | wind direction | speed MPH | gust MPH | rain 1hr in | rain 24hr in | rain mn in | humidity % | barometer mb |
| 20260507112533 | 68 | 212 | 0.0 | 9.0 | 0.00 | 0.00 | 0.00 | 72 | 1012.6 |
| 20260507112030 | 69 | 129 | 2.0 | 8.0 | 0.00 | 0.00 | 0.00 | 71 | 1012.6 |
| 20260507111533 | 69 | 138 | 2.0 | 10.0 | 0.00 | 0.00 | 0.00 | 70 | 1012.6 |
| 20260507111033 | 69 | 65 | 3.0 | 10.0 | 0.00 | 0.00 | 0.00 | 71 | 1012.7 |
| 20260507110536 | 68 | 302 | 0.0 | 7.0 | 0.00 | 0.00 | 0.00 | 71 | 1012.6 |
| 20260507110033 | 68 | 152 | 3.0 | 7.0 | 0.00 | 0.00 | 0.00 | 73 | 1012.6 |
| 20260507105530 | 68 | 274 | 2.0 | 10.0 | 0.00 | 0.00 | 0.00 | 74 | 1012.5 |
| 20260507105030 | 68 | 151 | 2.0 | 7.0 | 0.00 | 0.00 | 0.00 | 75 | 1012.4 |
| 20260507104530 | 67 | 312 | 1.0 | 9.0 | 0.00 | 0.00 | 0.00 | 75 | 1012.5 |
| 20260507104033 | 67 | 140 | 1.0 | 7.0 | 0.00 | 0.00 | 0.00 | 76 | 1012.5 |
| 20260507103530 | 66 | 126 | 7.0 | 13.0 | 0.00 | 0.00 | 0.00 | 78 | 1012.5 |
| 20260507103030 | 67 | 74 | 1.0 | 11.0 | 0.00 | 0.00 | 0.00 | 76 | 1012.5 |
| 20260507102530 | 66 | 95 | 11.0 | 13.0 | 0.00 | 0.00 | 0.00 | 76 | 1012.6 |
| 20260507102033 | 66 | 264 | 1.0 | 13.0 | 0.00 | 0.00 | 0.00 | 77 | 1012.5 |
| 20260507101530 | 65 | 142 | 2.0 | 12.0 | 0.00 | 0.00 | 0.00 | 79 | 1012.4 |
| 20260507101033 | 65 | 145 | 8.0 | 13.0 | 0.00 | 0.00 | 0.00 | 81 | 1012.5 |
| 20260507100533 | 64 | 153 | 5.0 | 15.0 | 0.00 | 0.00 | 0.00 | 81 | 1012.5 |
| 20260507100036 | 65 | 152 | 10.0 | 12.0 | 0.00 | 0.00 | 0.00 | 80 | 1012.5 |
| 20260507095533 | 65 | 139 | 4.0 | 10.0 | 0.00 | 0.00 | 0.00 | 79 | 1012.4 |
| 20260507095036 | 65 | 135 | 9.0 | 16.0 | 0.00 | 0.00 | 0.00 | 78 | 1012.5 |
| 20260507094530 | 66 | 128 | 13.0 | 14.0 | 0.00 | 0.00 | 0.00 | 77 | 1012.5 |
| 20260507094030 | 66 | 130 | 2.0 | 10.0 | 0.00 | 0.00 | 0.00 | 78 | 1012.5 |
| 20260507093533 | 67 | 138 | 3.0 | 14.0 | 0.00 | 0.00 | 0.00 | 77 | 1012.5 |
| 20260507093039 | 67 | 135 | 9.0 | 14.0 | 0.00 | 0.00 | 0.00 | 76 | 1012.5 |
| 20260507092533 | 67 | 286 | 1.0 | 15.0 | 0.00 | 0.00 | 0.00 | 78 | 1012.4 |
| 20260507092033 | 66 | 169 | 11.0 | 13.0 | 0.00 | 0.00 | 0.00 | 77 | 1012.4 |
| 20260507091533 | 66 | 138 | 9.0 | 15.0 | 0.00 | 0.00 | 0.00 | 75 | 1012.4 |
| 20260507091030 | 67 | 88 | 1.0 | 14.0 | 0.00 | 0.00 | 0.00 | 75 | 1012.3 |
| 20260507090533 | 67 | 105 | 11.0 | 12.0 | 0.00 | 0.00 | 0.00 | 75 | 1012.3 |
| 20260507090033 | 67 | 219 | 1.0 | 16.0 | 0.00 | 0.00 | 0.00 | 75 | 1012.3 |
| 20260507085530 | 67 | 141 | 4.0 | 14.0 | 0.00 | 0.00 | 0.00 | 75 | 1012.3 |
| 20260507085039 | 66 | 107 | 1.0 | 19.0 | 0.00 | 0.00 | 0.00 | 75 | 1012.3 |
| 20260507084530 | 66 | 145 | 5.0 | 10.0 | 0.00 | 0.00 | 0.00 | 76 | 1012.2 |
| 20260507084030 | 66 | 140 | 3.0 | 13.0 | 0.00 | 0.00 | 0.00 | 76 | 1012.1 |
| 20260507083533 | 67 | 116 | 6.0 | 12.0 | 0.00 | 0.00 | 0.00 | 75 | 1012.1 |
| 20260507083030 | 67 | 98 | 2.0 | 10.0 | 0.00 | 0.00 | 0.00 | 75 | 1012.1 |
| 20260507082530 | 66 | 130 | 2.0 | 7.0 | 0.00 | 0.00 | 0.00 | 77 | 1012.1 |
| 20260507082030 | 64 | 260 | 0.0 | 12.0 | 0.00 | 0.00 | 0.00 | 78 | 1012.1 |
| 20260507081536 | 64 | 117 | 7.0 | 11.0 | 0.00 | 0.00 | 0.00 | 79 | 1011.9 |
| 20260507081030 | 64 | 138 | 5.0 | 15.0 | 0.00 | 0.00 | 0.00 | 78 | 1011.9 |
| 20260507080530 | 64 | 144 | 2.0 | 11.0 | 0.00 | 0.00 | 0.00 | 78 | 1011.8 |
| 20260507080035 | 64 | 90 | 2.0 | 11.0 | 0.00 | 0.00 | 0.00 | 78 | 1011.8 |
| 20260507075530 | 63 | 355 | 3.0 | 10.0 | 0.00 | 0.00 | 0.00 | 78 | 1011.9 |
| 20260507075030 | 63 | 114 | 3.0 | 13.0 | 0.00 | 0.00 | 0.00 | 78 | 1011.7 |
| 20260507074533 | 64 | 113 | 14.0 | 14.0 | 0.00 | 0.00 | 0.00 | 77 | 1011.6 |
| 20260507074033 | 64 | 123 | 3.0 | 11.0 | 0.00 | 0.00 | 0.00 | 76 | 1011.6 |
| 20260507073530 | 64 | 136 | 4.0 | 12.0 | 0.00 | 0.00 | 0.00 | 75 | 1011.5 |
| 20260507073039 | 64 | 227 | 4.0 | 13.0 | 0.00 | 0.00 | 0.00 | 76 | 1011.5 |
| 20260507072530 | 64 | 102 | 6.0 | 8.0 | 0.00 | 0.00 | 0.00 | 75 | 1011.4 |
| 20260507072036 | 64 | 142 | 5.0 | 10.0 | 0.00 | 0.00 | 0.00 | 75 | 1011.4 |
| 20260507071530 | 64 | 244 | 1.0 | 13.0 | 0.00 | 0.00 | 0.00 | 74 | 1011.4 |
| 20260507071030 | 64 | 79 | 1.0 | 10.0 | 0.00 | 0.00 | 0.00 | 75 | 1011.4 |
| 20260507070539 | 64 | 128 | 2.0 | 11.0 | 0.00 | 0.00 | 0.00 | 74 | 1011.4 |
| 20260507070030 | 64 | 84 | 7.0 | 16.0 | 0.00 | 0.00 | 0.00 | 74 | 1011.3 |
| 20260507065530 | 64 | 121 | 0.0 | 10.0 | 0.00 | 0.00 | 0.00 | 74 | 1011.3 |
| 20260507065030 | 64 | 121 | 3.0 | 10.0 | 0.00 | 0.01 | 0.00 | 75 | 1011.3 |
| 20260507064530 | 64 | 125 | 7.0 | 9.0 | 0.00 | 0.03 | 0.00 | 75 | 1011.3 |
| 20260507064033 | 64 | 96 | 1.0 | 8.0 | 0.00 | 0.03 | 0.00 | 75 | 1011.3 |
| 20260507063530 | 64 | 129 | 5.0 | 9.0 | 0.00 | 0.03 | 0.00 | 76 | 1011.3 |
| 20260507063030 | 64 | 236 | 3.0 | 6.0 | 0.00 | 0.03 | 0.00 | 76 | 1011.2 |
| 20260507062533 | 64 | 117 | 6.0 | 10.0 | 0.00 | 0.04 | 0.00 | 75 | 1011.3 |
| 20260507062033 | 64 | 104 | 0.0 | 11.0 | 0.00 | 0.04 | 0.00 | 75 | 1011.2 |
| 20260507061533 | 64 | 116 | 1.0 | 9.0 | 0.00 | 0.04 | 0.00 | 75 | 1011.2 |
| 20260507061030 | 64 | 112 | 0.0 | 8.0 | 0.00 | 0.04 | 0.00 | 75 | 1011.2 |
| 20260507060530 | 64 | 80 | 0.0 | 5.0 | 0.00 | 0.04 | 0.00 | 76 | 1011.1 |
| 20260507060030 | 64 | 86 | 0.0 | 6.0 | 0.00 | 0.04 | 0.00 | 77 | 1011.0 |
| 20260507055536 | 63 | 55 | 2.0 | 9.0 | 0.00 | 0.04 | 0.00 | 77 | 1011.0 |
| 20260507055036 | 63 | 111 | 2.0 | 2.0 | 0.00 | 0.04 | 0.00 | 79 | 1011.1 |
| 20260507054530 | 62 | 131 | 0.0 | 4.0 | 0.00 | 0.04 | 0.00 | 79 | 1011.1 |
| 20260507054039 | 62 | 92 | 0.0 | 3.0 | 0.00 | 0.04 | 0.00 | 79 | 1011.0 |
| 20260507053533 | 62 | 123 | 1.0 | 6.0 | 0.00 | 0.04 | 0.00 | 79 | 1011.0 |
| 20260507053030 | 62 | 133 | 1.0 | 3.0 | 0.00 | 0.05 | 0.00 | 79 | 1010.9 |
| 20260507052533 | 62 | 127 | 0.0 | 3.0 | 0.00 | 0.05 | 0.00 | 80 | 1011.0 |
| 20260507052036 | 62 | 146 | 0.0 | 7.0 | 0.00 | 0.05 | 0.00 | 80 | 1011.0 |
| 20260507051530 | 61 | 108 | 0.0 | 6.0 | 0.00 | 0.05 | 0.00 | 80 | 1010.8 |
| 20260507051036 | 61 | 111 | 0.0 | 4.0 | 0.00 | 0.05 | 0.00 | 80 | 1010.8 |
| 20260507050533 | 61 | 132 | 1.0 | 6.0 | 0.00 | 0.05 | 0.00 | 81 | 1010.6 |
| 20260507050033 | 61 | 106 | 1.0 | 3.0 | 0.00 | 0.05 | 0.00 | 81 | 1010.5 |
| 20260507045533 | 61 | 69 | 3.0 | 6.0 | 0.00 | 0.05 | 0.00 | 81 | 1010.4 |
| 20260507045030 | 61 | 111 | 0.0 | 8.0 | 0.00 | 0.05 | 0.00 | 81 | 1010.4 |
| 20260507044530 | 61 | 114 | 3.0 | 6.0 | 0.00 | 0.05 | 0.00 | 81 | 1010.4 |
| 20260507044030 | 61 | 96 | 2.0 | 9.0 | 0.00 | 0.05 | 0.00 | 81 | 1010.4 |
| 20260507043530 | 61 | 115 | 0.0 | 6.0 | 0.00 | 0.05 | 0.00 | 81 | 1010.4 |
| 20260507043033 | 61 | 131 | 1.0 | 7.0 | 0.00 | 0.05 | 0.00 | 81 | 1010.3 |
| 20260507042530 | 61 | 80 | 2.0 | 7.0 | 0.00 | 0.05 | 0.00 | 81 | 1010.4 |
| 20260507042033 | 61 | 126 | 0.0 | 7.0 | 0.00 | 0.05 | 0.00 | 81 | 1010.3 |
| 20260507041539 | 61 | 119 | 1.0 | 4.0 | 0.00 | 0.05 | 0.00 | 82 | 1010.2 |
| 20260507041030 | 61 | 119 | 0.0 | 4.0 | 0.00 | 0.07 | 0.00 | 82 | 1010.2 |
| 20260507040536 | 61 | 109 | 1.0 | 5.0 | 0.00 | 0.07 | 0.00 | 82 | 1010.2 |
| 20260507040030 | 61 | 125 | 0.0 | 11.0 | 0.00 | 0.08 | 0.00 | 82 | 1010.3 |
| 20260507035530 | 61 | 136 | 1.0 | 9.0 | 0.00 | 0.09 | 0.00 | 81 | 1010.2 |
| 20260507035033 | 61 | 110 | 1.0 | 7.0 | 0.00 | 0.09 | 0.00 | 81 | 1010.2 |
| 20260507034533 | 61 | 125 | 0.0 | 4.0 | 0.00 | 0.10 | 0.00 | 81 | 1010.2 |
| 20260507034030 | 61 | 88 | 0.0 | 4.0 | 0.00 | 0.10 | 0.00 | 81 | 1010.3 |
| 20260507033533 | 61 | 139 | 0.0 | 5.0 | 0.00 | 0.10 | 0.00 | 81 | 1010.2 |
| 20260507033030 | 61 | 134 | 0.0 | 7.0 | 0.00 | 0.10 | 0.00 | 81 | 1010.2 |
| 20260507032539 | 61 | 128 | 1.0 | 7.0 | 0.00 | 0.10 | 0.00 | 81 | 1010.2 |
| 20260507032030 | 61 | 151 | 4.0 | 6.0 | 0.00 | 0.10 | 0.00 | 81 | 1010.1 |
| 20260507031530 | 61 | 96 | 1.0 | 10.0 | 0.00 | 0.10 | 0.00 | 81 | 1010.1 |
| 20260507031030 | 61 | 101 | 4.0 | 6.0 | 0.00 | 0.10 | 0.00 | 81 | 1010.2 |
| 20260507030530 | 61 | 113 | 2.0 | 7.0 | 0.00 | 0.10 | 0.00 | 81 | 1010.2 |
| 20260507030030 | 62 | 72 | 0.0 | 10.0 | 0.00 | 0.10 | 0.00 | 81 | 1010.2 |
| 20260507025536 | 62 | 155 | 7.0 | 9.0 | 0.00 | 0.10 | 0.00 | 81 | 1010.1 |
| 20260507025030 | 62 | 135 | 3.0 | 10.0 | 0.00 | 0.10 | 0.00 | 81 | 1010.1 |
| 20260507024530 | 62 | 68 | 2.0 | 4.0 | 0.00 | 0.10 | 0.00 | 81 | 1010.1 |
| 20260507024030 | 62 | 132 | 3.0 | 4.0 | 0.00 | 0.11 | 0.00 | 81 | 1010.1 |
| 20260507023533 | 62 | 126 | 0.0 | 6.0 | 0.00 | 0.11 | 0.00 | 81 | 1010.1 |
| 20260507023030 | 62 | 117 | 0.0 | 4.0 | 0.00 | 0.11 | 0.00 | 81 | 1010.1 |
| 20260507022533 | 62 | 184 | 4.0 | 6.0 | 0.00 | 0.11 | 0.00 | 81 | 1010.1 |
| 20260507022033 | 62 | 129 | 3.0 | 7.0 | 0.00 | 0.11 | 0.00 | 81 | 1010.2 |
| 20260507021539 | 62 | 105 | 1.0 | 5.0 | 0.00 | 0.12 | 0.00 | 81 | 1010.2 |
| 20260507021036 | 62 | 147 | 1.0 | 7.0 | 0.00 | 0.13 | 0.00 | 81 | 1010.1 |
| 20260507020533 | 62 | 138 | 1.0 | 10.0 | 0.00 | 0.13 | 0.00 | 81 | 1010.1 |
| 20260507020036 | 62 | 115 | 1.0 | 10.0 | 0.00 | 0.28 | 0.00 | 79 | 1010.2 |
| 20260507015533 | 62 | 144 | 3.0 | 10.0 | 0.00 | 0.29 | 0.00 | 79 | 1010.1 |
| 20260507015030 | 62 | 146 | 1.0 | 6.0 | 0.00 | 0.32 | 0.00 | 79 | 1010.1 |
| 20260507014530 | 62 | 131 | 1.0 | 8.0 | 0.00 | 0.36 | 0.00 | 79 | 1010.1 |
| 20260507014033 | 62 | 133 | 2.0 | 6.0 | 0.00 | 0.38 | 0.00 | 78 | 1010.0 |
| 20260507013530 | 62 | 91 | 4.0 | 9.0 | 0.00 | 0.40 | 0.00 | 78 | 1010.1 |
| 20260507013036 | 62 | 148 | 2.0 | 7.0 | 0.00 | 0.46 | 0.00 | 78 | 1010.1 |
| 20260507012530 | 62 | 152 | 3.0 | 7.0 | 0.00 | 0.51 | 0.00 | 78 | 1010.2 |
| 20260507012033 | 62 | 149 | 2.0 | 7.0 | 0.00 | 0.55 | 0.00 | 78 | 1010.2 |
| 20260507011530 | 62 | 139 | 4.0 | 8.0 | 0.00 | 0.57 | 0.00 | 78 | 1010.2 |
| 20260507011036 | 62 | 144 | 5.0 | 7.0 | 0.00 | 0.64 | 0.00 | 78 | 1010.3 |
| 20260507010533 | 62 | 182 | 1.0 | 6.0 | 0.00 | 0.66 | 0.00 | 78 | 1010.2 |
| 20260507010039 | 62 | 157 | 5.0 | 9.0 | 0.00 | 0.67 | 0.00 | 78 | 1010.3 |
| 20260507005530 | 62 | 135 | 3.0 | 6.0 | 0.00 | 0.67 | 0.00 | 78 | 1010.3 |
| 20260507005030 | 62 | 160 | 1.0 | 5.0 | 0.00 | 0.68 | 0.00 | 78 | 1010.5 |
| 20260507004530 | 62 | 156 | 1.0 | 8.0 | 0.00 | 0.69 | 0.00 | 78 | 1010.5 |
| 20260507004033 | 62 | 184 | 4.0 | 8.0 | 0.00 | 0.69 | 0.00 | 78 | 1010.4 |
| 20260507003533 | 62 | 143 | 1.0 | 9.0 | 0.00 | 0.69 | 0.00 | 78 | 1010.3 |
| 20260507003030 | 62 | 175 | 4.0 | 9.0 | 0.00 | 0.69 | 0.00 | 78 | 1010.3 |
| 20260507002533 | 62 | 102 | 0.0 | 10.0 | 0.00 | 0.69 | 0.00 | 78 | 1010.2 |
| 20260507002030 | 62 | 37 | 1.0 | 6.0 | 0.00 | 0.69 | 0.00 | 78 | 1010.3 |
| 20260507001539 | 62 | 138 | 2.0 | 9.0 | 0.00 | 0.70 | 0.00 | 78 | 1010.2 |
| 20260507001033 | 62 | 234 | 2.0 | 10.0 | 0.00 | 0.70 | 0.00 | 78 | 1010.1 |
| 20260507000533 | 62 | 151 | 2.0 | 8.0 | 0.00 | 0.70 | 0.00 | 77 | 1010.2 |
| 20260507000039 | 62 | 140 | 3.0 | 8.0 | 0.00 | 0.70 | 0.00 | 77 | 1010.2 |
| 20260506235533 | 62 | 150 | 0.0 | 5.0 | 0.00 | 0.70 | 0.00 | 77 | 1010.3 |
| 20260506235036 | 62 | 130 | 2.0 | 5.0 | 0.00 | 0.70 | 0.00 | 77 | 1010.3 |
| 20260506234530 | 62 | 147 | 3.0 | 9.0 | 0.00 | 0.70 | 0.00 | 77 | 1010.4 |
| 20260506234030 | 63 | 121 | 4.0 | 9.0 | 0.00 | 0.70 | 0.00 | 76 | 1010.5 |
| 20260506233539 | 63 | 130 | 4.0 | 9.0 | 0.00 | 0.70 | 0.00 | 76 | 1010.4 |
| 20260506233033 | 63 | 134 | 2.0 | 8.0 | 0.00 | 0.70 | 0.00 | 76 | 1010.4 |
| 20260506232530 | 63 | 69 | 2.0 | 9.0 | 0.00 | 0.70 | 0.00 | 75 | 1010.3 |
| 20260506232030 | 63 | 157 | 2.0 | 7.0 | 0.00 | 0.70 | 0.00 | 75 | 1010.4 |
| 20260506231530 | 63 | 93 | 1.0 | 9.0 | 0.00 | 0.70 | 0.00 | 75 | 1010.4 |
| 20260506231030 | 63 | 131 | 1.0 | 6.0 | 0.00 | 0.70 | 0.00 | 75 | 1010.5 |
| 20260506230530 | 63 | 141 | 1.0 | 8.0 | 0.00 | 0.70 | 0.00 | 75 | 1010.5 |
| 20260506230033 | 63 | 171 | 5.0 | 8.0 | 0.00 | 0.70 | 0.00 | 74 | 1010.4 |
| 20260506225530 | 63 | 106 | 4.0 | 8.0 | 0.00 | 0.70 | 0.00 | 74 | 1010.4 |
| 20260506225030 | 63 | 131 | 2.0 | 9.0 | 0.00 | 0.70 | 0.00 | 74 | 1010.4 |
| 20260506224530 | 63 | 147 | 3.0 | 10.0 | 0.00 | 0.70 | 0.00 | 74 | 1010.4 |
| 20260506224030 | 63 | 146 | 3.0 | 5.0 | 0.00 | 0.70 | 0.00 | 74 | 1010.3 |
| 20260506223533 | 63 | 166 | 3.0 | 7.0 | 0.00 | 0.70 | 0.00 | 74 | 1010.3 |
| 20260506223030 | 63 | 172 | 2.0 | 4.0 | 0.00 | 0.70 | 0.00 | 74 | 1010.4 |
| 20260506222539 | 63 | 140 | 1.0 | 8.0 | 0.00 | 0.70 | 0.00 | 74 | 1010.5 |
| 20260506222033 | 63 | 154 | 1.0 | 9.0 | 0.00 | 0.70 | 0.00 | 74 | 1010.4 |
| 20260506221530 | 63 | 146 | 2.0 | 8.0 | 0.00 | 0.70 | 0.00 | 75 | 1010.4 |
| 20260506221036 | 63 | 103 | 3.0 | 7.0 | 0.00 | 0.70 | 0.00 | 75 | 1010.5 |
| 20260506220533 | 63 | 124 | 3.0 | 9.0 | 0.00 | 0.70 | 0.00 | 75 | 1010.5 |
| 20260506220030 | 63 | 211 | 0.0 | 4.0 | 0.00 | 0.70 | 0.00 | 77 | 1010.4 |
| 20260506215530 | 63 | 115 | 0.0 | 8.0 | 0.00 | 0.70 | 0.00 | 77 | 1010.4 |
| 20260506215033 | 63 | 157 | 2.0 | 11.0 | 0.00 | 0.70 | 0.00 | 78 | 1010.3 |
| 20260506214530 | 63 | 179 | 2.0 | 10.0 | 0.00 | 0.70 | 0.00 | 78 | 1010.3 |
| 20260506214039 | 63 | 208 | 2.0 | 6.0 | 0.00 | 0.70 | 0.00 | 78 | 1010.3 |
| 20260506213533 | 63 | 103 | 1.0 | 11.0 | 0.00 | 0.70 | 0.00 | 78 | 1010.4 |
| 20260506213039 | 63 | 141 | 2.0 | 5.0 | 0.00 | 0.70 | 0.00 | 78 | 1010.5 |
| 20260506212530 | 63 | 123 | 1.0 | 5.0 | 0.00 | 0.70 | 0.00 | 79 | 1010.5 |
| 20260506212033 | 63 | 128 | 1.0 | 5.0 | 0.00 | 0.70 | 0.00 | 78 | 1010.3 |
| 20260506211530 | 63 | 112 | 4.0 | 8.0 | 0.00 | 0.70 | 0.00 | 78 | 1010.3 |
| 20260506211030 | 63 | 139 | 9.0 | 9.0 | 0.00 | 0.70 | 0.00 | 78 | 1010.3 |
| 20260506210530 | 63 | 171 | 0.0 | 6.0 | 0.00 | 0.70 | 0.00 | 78 | 1010.3 |
| 20260506210030 | 63 | 222 | 0.0 | 9.0 | 0.00 | 0.70 | 0.00 | 78 | 1010.3 |
| 20260506205530 | 63 | 148 | 2.0 | 6.0 | 0.00 | 0.70 | 0.00 | 78 | 1010.3 |
| 20260506205033 | 63 | 133 | 3.0 | 7.0 | 0.00 | 0.70 | 0.00 | 78 | 1010.3 |
| 20260506204533 | 63 | 157 | 2.0 | 10.0 | 0.00 | 0.70 | 0.00 | 78 | 1010.3 |
| 20260506204033 | 63 | 103 | 8.0 | 8.0 | 0.00 | 0.70 | 0.00 | 78 | 1010.2 |
| 20260506203536 | 63 | 88 | 0.0 | 10.0 | 0.00 | 0.70 | 0.00 | 78 | 1010.1 |
| 20260506203033 | 63 | 135 | 1.0 | 9.0 | 0.00 | 0.70 | 0.00 | 78 | 1010.1 |
| 20260506202533 | 63 | 96 | 4.0 | 9.0 | 0.00 | 0.70 | 0.00 | 78 | 1010.1 |
| 20260506202030 | 63 | 146 | 1.0 | 7.0 | 0.00 | 0.70 | 0.00 | 78 | 1010.1 |
| 20260506201530 | 63 | 161 | 2.0 | 5.0 | 0.00 | 0.70 | 0.00 | 78 | 1010.1 |
| 20260506201033 | 63 | 127 | 1.0 | 4.0 | 0.00 | 0.70 | 0.00 | 78 | 1010.1 |
| 20260506200530 | 63 | 138 | 2.0 | 7.0 | 0.00 | 0.70 | 0.00 | 78 | 1010.0 |
| 20260506200036 | 63 | 146 | 0.0 | 8.0 | 0.00 | 0.70 | 0.00 | 78 | 1009.9 |
| 20260506195533 | 63 | 118 | 6.0 | 6.0 | 0.00 | 0.70 | 0.00 | 78 | 1009.9 |
| 20260506195030 | 63 | 132 | 0.0 | 5.0 | 0.00 | 0.70 | 0.00 | 77 | 1009.7 |
| 20260506194530 | 63 | 247 | 0.0 | 9.0 | 0.00 | 0.70 | 0.00 | 77 | 1009.6 |
| 20260506194033 | 63 | 234 | 3.0 | 4.0 | 0.00 | 0.70 | 0.00 | 78 | 1009.6 |
| 20260506193530 | 63 | 142 | 1.0 | 10.0 | 0.00 | 0.70 | 0.00 | 78 | 1009.6 |
| 20260506193036 | 63 | 123 | 8.0 | 8.0 | 0.00 | 0.70 | 0.00 | 78 | 1009.6 |
| 20260506192530 | 63 | 135 | 1.0 | 10.0 | 0.00 | 0.70 | 0.00 | 78 | 1009.5 |
| 20260506192036 | 63 | 123 | 0.0 | 3.0 | 0.00 | 0.70 | 0.00 | 78 | 1009.5 |
| 20260506191530 | 63 | 124 | 1.0 | 3.0 | 0.00 | 0.70 | 0.00 | 79 | 1009.4 |
| 20260506191039 | 63 | 132 | 1.0 | 9.0 | 0.00 | 0.70 | 0.00 | 79 | 1009.3 |
| 20260506190530 | 63 | 138 | 0.0 | 5.0 | 0.00 | 0.70 | 0.00 | 79 | 1009.3 |
| 20260506190039 | 63 | 175 | 3.0 | 8.0 | 0.00 | 0.70 | 0.00 | 79 | 1009.2 |
| 20260506185539 | 63 | 123 | 0.0 | 5.0 | 0.00 | 0.70 | 0.00 | 80 | 1009.2 |
| 20260506185030 | 63 | 129 | 1.0 | 8.0 | 0.00 | 0.70 | 0.00 | 80 | 1009.1 |
| 20260506184536 | 63 | 172 | 1.0 | 7.0 | 0.00 | 0.70 | 0.00 | 80 | 1009.0 |
| 20260506184033 | 63 | 139 | 5.0 | 8.0 | 0.00 | 0.70 | 0.00 | 80 | 1009.0 |
| 20260506183530 | 63 | 117 | 0.0 | 9.0 | 0.00 | 0.70 | 0.00 | 80 | 1008.9 |
| 20260506183033 | 63 | 103 | 7.0 | 8.0 | 0.00 | 0.70 | 0.00 | 80 | 1008.9 |
| 20260506182533 | 63 | 92 | 0.0 | 11.0 | 0.00 | 0.70 | 0.00 | 80 | 1008.8 |
| 20260506182033 | 63 | 132 | 1.0 | 9.0 | 0.00 | 0.70 | 0.00 | 81 | 1008.8 |
| 20260506181530 | 63 | 112 | 1.0 | 7.0 | 0.00 | 0.70 | 0.00 | 81 | 1008.6 |
| 20260506181036 | 63 | 117 | 3.0 | 9.0 | 0.00 | 0.70 | 0.00 | 81 | 1008.5 |
| 20260506180536 | 63 | 123 | 5.0 | 12.0 | 0.00 | 0.70 | 0.00 | 81 | 1008.4 |
| 20260506180033 | 63 | 154 | 2.0 | 10.0 | 0.00 | 0.70 | 0.00 | 81 | 1008.4 |
| 20260506175530 | 63 | 221 | 1.0 | 6.0 | 0.00 | 0.70 | 0.00 | 81 | 1008.3 |
| 20260506175033 | 64 | 158 | 3.0 | 9.0 | 0.00 | 0.70 | 0.00 | 81 | 1008.3 |
| 20260506174533 | 64 | 136 | 3.0 | 8.0 | 0.00 | 0.70 | 0.00 | 81 | 1008.4 |
| 20260506174030 | 64 | 217 | 2.0 | 10.0 | 0.00 | 0.70 | 0.00 | 81 | 1008.3 |
| 20260506173530 | 64 | 167 | 1.0 | 7.0 | 0.00 | 0.70 | 0.00 | 80 | 1008.3 |
| 20260506173036 | 64 | 209 | 5.0 | 11.0 | 0.00 | 0.70 | 0.00 | 80 | 1008.3 |
| 20260506172533 | 64 | 81 | 9.0 | 14.0 | 0.00 | 0.70 | 0.00 | 79 | 1008.3 |
| 20260506172030 | 64 | 139 | 2.0 | 10.0 | 0.00 | 0.70 | 0.00 | 79 | 1008.3 |
| 20260506171533 | 64 | 138 | 2.0 | 9.0 | 0.00 | 0.70 | 0.00 | 78 | 1008.3 |
| 20260506171033 | 64 | 130 | 3.0 | 8.0 | 0.00 | 0.70 | 0.00 | 78 | 1008.2 |
| 20260506170530 | 65 | 288 | 0.0 | 12.0 | 0.00 | 0.70 | 0.00 | 77 | 1008.3 |
| 20260506170030 | 65 | 107 | 6.0 | 10.0 | 0.00 | 0.70 | 0.00 | 77 | 1008.2 |
| 20260506165530 | 65 | 148 | 2.0 | 10.0 | 0.00 | 0.70 | 0.00 | 76 | 1008.1 |
| 20260506165033 | 66 | 165 | 4.0 | 11.0 | 0.00 | 0.70 | 0.00 | 76 | 1008.2 |
| 20260506164530 | 66 | 241 | 6.0 | 10.0 | 0.00 | 0.70 | 0.00 | 74 | 1008.2 |
| 20260506164036 | 67 | 133 | 5.0 | 11.0 | 0.00 | 0.70 | 0.00 | 75 | 1008.3 |
| 20260506163530 | 66 | 211 | 2.0 | 12.0 | 0.00 | 0.70 | 0.00 | 74 | 1008.3 |
| 20260506163039 | 67 | 121 | 2.0 | 8.0 | 0.00 | 0.70 | 0.00 | 76 | 1008.2 |
| 20260506162530 | 66 | 232 | 1.0 | 10.0 | 0.00 | 0.70 | 0.00 | 75 | 1008.2 |
| 20260506162033 | 66 | 155 | 6.0 | 9.0 | 0.00 | 0.70 | 0.00 | 75 | 1008.2 |
| 20260506161530 | 66 | 139 | 2.0 | 9.0 | 0.00 | 0.70 | 0.00 | 75 | 1008.2 |
| 20260506161033 | 67 | 138 | 0.0 | 5.0 | 0.00 | 0.70 | 0.00 | 75 | 1008.2 |
| 20260506160530 | 66 | 272 | 8.0 | 10.0 | 0.00 | 0.70 | 0.00 | 75 | 1008.2 |
| 20260506160030 | 66 | 30 | 1.0 | 10.0 | 0.00 | 0.70 | 0.00 | 76 | 1008.2 |
| 20260506155530 | 66 | 140 | 4.0 | 10.0 | 0.00 | 0.70 | 0.00 | 76 | 1008.1 |
| 20260506155030 | 66 | 211 | 1.0 | 11.0 | 0.00 | 0.70 | 0.00 | 77 | 1008.1 |
| 20260506154533 | 66 | 140 | 8.0 | 12.0 | 0.00 | 0.70 | 0.00 | 77 | 1008.1 |
| 20260506154030 | 67 | 105 | 3.0 | 8.0 | 0.00 | 0.70 | 0.00 | 77 | 1008.1 |
| 20260506153536 | 67 | 154 | 8.0 | 12.0 | 0.00 | 0.70 | 0.00 | 75 | 1008.1 |
| 20260506153030 | 68 | 123 | 3.0 | 9.0 | 0.00 | 0.70 | 0.00 | 75 | 1008.0 |
| 20260506152530 | 68 | 123 | 2.0 | 7.0 | 0.00 | 0.70 | 0.00 | 75 | 1007.9 |
| 20260506152030 | 67 | 265 | 3.0 | 14.0 | 0.00 | 0.70 | 0.00 | 76 | 1008.0 |
| 20260506151533 | 68 | 138 | 7.0 | 13.0 | 0.00 | 0.70 | 0.00 | 76 | 1008.0 |
| 20260506151030 | 68 | 138 | 9.0 | 11.0 | 0.00 | 0.70 | 0.00 | 76 | 1008.0 |
| 20260506150536 | 68 | 284 | 2.0 | 12.0 | 0.00 | 0.70 | 0.00 | 76 | 1008.0 |
| 20260506150033 | 68 | 123 | 3.0 | 12.0 | 0.00 | 0.70 | 0.00 | 76 | 1008.0 |
| 20260506145539 | 68 | 146 | 3.0 | 7.0 | 0.00 | 0.70 | 0.00 | 76 | 1008.0 |
| 20260506145033 | 67 | 323 | 0.0 | 9.0 | 0.00 | 0.70 | 0.00 | 77 | 1008.0 |
| 20260506144539 | 67 | 136 | 5.0 | 11.0 | 0.00 | 0.70 | 0.00 | 76 | 1008.0 |
| 20260506144030 | 67 | 154 | 3.0 | 8.0 | 0.00 | 0.70 | 0.00 | 76 | 1008.0 |
| 20260506143530 | 67 | 275 | 3.0 | 9.0 | 0.00 | 0.70 | 0.00 | 77 | 1008.0 |
| 20260506143030 | 66 | 199 | 1.0 | 11.0 | 0.00 | 0.70 | 0.00 | 79 | 1008.0 |
| 20260506142530 | 66 | 153 | 2.0 | 8.0 | 0.00 | 0.70 | 0.00 | 78 | 1008.0 |
| 20260506142030 | 67 | 159 | 1.0 | 8.0 | 0.00 | 0.70 | 0.00 | 76 | 1008.0 |
| 20260506141530 | 67 | 124 | 3.0 | 11.0 | 0.00 | 0.70 | 0.00 | 76 | 1008.0 |
| 20260506141030 | 67 | 148 | 5.0 | 12.0 | 0.00 | 0.70 | 0.00 | 75 | 1008.0 |
| 20260506140533 | 68 | 150 | 8.0 | 10.0 | 0.00 | 0.70 | 0.00 | 73 | 1008.1 |
| 20260506140033 | 68 | 145 | 6.0 | 9.0 | 0.00 | 0.70 | 0.00 | 71 | 1008.1 |
| 20260506135530 | 68 | 180 | 2.0 | 9.0 | 0.00 | 0.70 | 0.00 | 72 | 1008.0 |
| 20260506135039 | 68 | 142 | 2.0 | 10.0 | 0.00 | 0.70 | 0.00 | 72 | 1008.2 |
| 20260506134536 | 68 | 131 | 5.0 | 7.0 | 0.00 | 0.70 | 0.00 | 71 | 1008.1 |
| 20260506134033 | 68 | 202 | 1.0 | 9.0 | 0.00 | 0.70 | 0.00 | 69 | 1008.2 |
| 20260506133536 | 68 | 138 | 3.0 | 11.0 | 0.00 | 0.70 | 0.00 | 69 | 1008.2 |
| 20260506133030 | 68 | 165 | 5.0 | 9.0 | 0.00 | 0.70 | 0.00 | 71 | 1008.3 |
| 20260506132533 | 68 | 136 | 5.0 | 11.0 | 0.00 | 0.70 | 0.00 | 70 | 1008.3 |
| 20260506132033 | 68 | 212 | 1.0 | 10.0 | 0.00 | 0.70 | 0.00 | 71 | 1008.3 |
| 20260506131530 | 68 | 152 | 2.0 | 11.0 | 0.00 | 0.70 | 0.00 | 71 | 1008.3 |
| 20260506131030 | 68 | 164 | 6.0 | 14.0 | 0.00 | 0.70 | 0.00 | 73 | 1008.3 |
| 20260506130530 | 69 | 179 | 3.0 | 10.0 | 0.00 | 0.70 | 0.00 | 73 | 1008.2 |
| 20260506130030 | 68 | 207 | 4.0 | 11.0 | 0.00 | 0.70 | 0.00 | 73 | 1008.2 |
| 20260506125530 | 68 | 150 | 3.0 | 10.0 | 0.00 | 0.70 | 0.00 | 73 | 1008.3 |
| 20260506125033 | 68 | 130 | 3.0 | 10.0 | 0.00 | 0.70 | 0.00 | 74 | 1008.3 |
| 20260506124530 | 69 | 142 | 3.0 | 9.0 | 0.00 | 0.70 | 0.00 | 73 | 1008.3 |
| 20260506124030 | 69 | 184 | 2.0 | 8.0 | 0.00 | 0.70 | 0.00 | 73 | 1008.2 |
| 20260506123530 | 69 | 169 | 0.0 | 7.0 | 0.00 | 0.70 | 0.00 | 74 | 1008.1 |
| 20260506123030 | 69 | 126 | 2.0 | 9.0 | 0.00 | 0.70 | 0.00 | 75 | 1008.0 |
| 20260506122536 | 68 | 139 | 2.0 | 8.0 | 0.00 | 0.70 | 0.00 | 77 | 1008.0 |
| 20260506122039 | 68 | 167 | 6.0 | 11.0 | 0.00 | 0.70 | 0.00 | 78 | 1008.0 |
| 20260506121530 | 68 | 157 | 7.0 | 10.0 | 0.00 | 0.70 | 0.00 | 78 | 1008.0 |
| 20260506121030 | 68 | 166 | 5.0 | 10.0 | 0.00 | 0.70 | 0.00 | 81 | 1007.9 |
| 20260506120539 | 67 | 167 | 5.0 | 9.0 | 0.00 | 0.70 | 0.00 | 81 | 1007.9 |
| 20260506120033 | 66 | 161 | 1.0 | 10.0 | 0.00 | 0.70 | 0.00 | 81 | 1007.9 |
| 20260506115533 | 66 | 185 | 2.0 | 10.0 | 0.00 | 0.70 | 0.00 | 81 | 1007.9 |
| 20260506115036 | 66 | 168 | 7.0 | 11.0 | 0.00 | 0.70 | 0.00 | 80 | 1007.9 |
| 20260506114536 | 67 | 150 | 6.0 | 14.0 | 0.00 | 0.70 | 0.00 | 80 | 1007.9 |
| 20260506114030 | 67 | 178 | 5.0 | 11.0 | 0.00 | 0.70 | 0.00 | 79 | 1007.9 |
| 20260506113530 | 67 | 182 | 4.0 | 9.0 | 0.00 | 0.70 | 0.00 | 80 | 1007.9 |
| 20260506113030 | 67 | 246 | 3.0 | 12.0 | 0.00 | 0.70 | 0.00 | 78 | 1007.9 |